Location: Appeville
(49.3218°N, 1.3427°W)
Time: 13:41:24
(UTC+00:00)

USA 81 - Pass Details

Date: 08 December 2019
Orbit: 785 x 788 km, 85.0° (Epoch: 06 January)

Event Time Altitude Azimuth Distance (km) Brightness Sun altitude
Rises 06:52:33 0° 354° (N) 3,290 7.0 -8.5°
Reaches altitude 10° 06:54:56 10° 355° (N) 2,357 6.2 -8.2°
Maximum altitude 07:00:14 82° 84° (E) 800 4.2 -7.4°
Drops below altitude 10° 07:05:30 10° 172° (S) 2,340 7.0 -6.6°
Sets 07:07:50 0° 173° (S) 3,264 7.8 -6.3°
